Fairbury, Nebraska, United States (68352)
Lat: 40.14N, Lon: 97.18W
Wx Zone: NEZ088
Local Info
Past Weather Observations for Today

NOTE: This archive is for the closest National Weather Service station to Fairbury. Information may differ from the station used for current weather conditions.

Click here for Long-term Archive

Time Weather Temperature Dewpoint Humidity Pressure Winds Precip Visibility
06:55
Clear
28°F / -2°C 19°F / -7°C 69% 30.36 in
(1028 mb)
SE 8.1 mph
(SE 13 kph)
- 10SM
06:35
Clear
28°F / -2°C 19°F / -7°C 69% 30.36 in
(1028 mb)
SSE 9.2 mph
(SSE 15 kph)
- 10SM
06:15
Clear
30°F / -1°C 19°F / -7°C 64% 30.36 in
(1028 mb)
SSE 10.4 mph
(SSE 17 kph)
- 10SM
05:55
Clear
28°F / -2°C 19°F / -7°C 69% 30.36 in
(1028 mb)
SE 8.1 mph
(SE 13 kph)
- 10SM
05:35
Clear
27°F / -3°C 19°F / -7°C 74% 30.36 in
(1028 mb)
SE 6.9 mph
(SE 11 kph)
- 10SM
05:15
Clear
28°F / -2°C 19°F / -7°C 69% 30.36 in
(1028 mb)
SE 6.9 mph
(SE 11 kph)
- 10SM
04:55
Clear
27°F / -3°C 18°F / -8°C 69% 30.36 in
(1028 mb)
SSE 4.6 mph
(SSE 7 kph)
- 10SM
04:35
Clear
27°F / -3°C 18°F / -8°C 69% 30.36 in
(1028 mb)
SE 5.8 mph
(SE 9 kph)
- 10SM
04:15
Clear
28°F / -2°C 18°F / -8°C 64% 30.36 in
(1028 mb)
SSE 4.6 mph
(SSE 7 kph)
- 10SM
03:55
Clear
28°F / -2°C 18°F / -8°C 64% 30.36 in
(1028 mb)
SSE 5.8 mph
(SSE 9 kph)
- 10SM
03:35
Clear
28°F / -2°C 18°F / -8°C 64% 30.36 in
(1028 mb)
SE 9.2 mph
(SE 15 kph)
- 10SM
03:15
Clear
28°F / -2°C 18°F / -8°C 64% 30.39 in
(1029 mb)
SE 9.2 mph
(SE 15 kph)
- 10SM
02:55
Clear
28°F / -2°C 19°F / -7°C 69% 30.39 in
(1029 mb)
SE 8.1 mph
(SE 13 kph)
- 10SM
02:35
Clear
28°F / -2°C 18°F / -8°C 64% 30.39 in
(1029 mb)
SE 6.9 mph
(SE 11 kph)
- 10SM
02:15
Clear
27°F / -3°C 18°F / -8°C 69% 30.39 in
(1029 mb)
SE 6.9 mph
(SE 11 kph)
- 10SM
01:55
Clear
27°F / -3°C 18°F / -8°C 69% 30.39 in
(1029 mb)
SE 4.6 mph
(SE 7 kph)
- 10SM
01:35
Clear
25°F / -4°C 18°F / -8°C 74% 30.42 in
(1030 mb)
SSE 4.6 mph
(SSE 7 kph)
- 10SM
01:15
Clear
25°F / -4°C 16°F / -9°C 69% 30.42 in
(1030 mb)
SSE 3.5 mph
(SSE 6 kph)
- 10SM
00:55
Clear
27°F / -3°C 16°F / -9°C 64% 30.42 in
(1030 mb)
SE 3.5 mph
(SE 6 kph)
- 10SM
00:35
Clear
25°F / -4°C 18°F / -8°C 74% 30.42 in
(1030 mb)
Calm - 10SM
00:15
Clear
27°F / -3°C 16°F / -9°C 64% 30.42 in
(1030 mb)
Calm - 10SM
Time Weather Temperature Dewpoint Humidity Pressure Winds Precip Visibility


Weather for websites

WeatherForYou.com, LLC is not responsible for any damages or problems caused by this service. Current weather conditions are obtained from the closest station including government and personal stations which may have varying degrees of accuracy. Weather forecasts are derived from the NOAA NDFD. Like all things, this site belongs to Jesus Christ... He just trusts me to maintain it. If you have any questions or comments email webmaster@weatherforyou.com

Copyright © 2014, WeatherForYou.com LLC. All rights reserved.